K9JWM Weather Reports


Display with metric or nautical units.
time (UTC)temp
F
wind
direction
speed
MPH
gust
MPH
rain 1hr
in
rain 24hr
in
rain mn
in
humidity
%
barometer
mb
20260905224004 77 62 1.0 5.0 0.00 0.01 0.01 72 1016.0
20260905223913 76 15 1.0 2.0 0.00 0.01 0.01 72 1016.0
20260905223004 77 3 1.0 7.0 0.00 0.01 0.01 73 1016.0
20260905222413 77 45 1.0 2.0 0.00 0.01 0.01 72 1016.1
20260905221011 77 48 1.0 7.0 0.00 0.01 0.01 72 1016.2
20260905220913 77 35 1.0 3.0 0.00 0.01 0.01 73 1016.1
20260905220004 77 71 2.0 7.0 0.00 0.01 0.01 72 1016.1
20260905215414 78 67 2.0 3.0 0.00 0.01 0.01 71 1016.0
20260905215008 78 55 1.0 5.0 0.00 0.01 0.01 71 1016.1
20260905214005 77 9 1.0 3.0 0.00 0.01 0.01 72 1016.2
20260905213913 77 353 0.0 2.0 0.00 0.01 0.01 72 1016.2
20260905213005 77 294 1.0 3.0 0.00 0.01 0.01 71 1016.4
20260905212412 77 289 1.0 3.0 0.00 0.01 0.01 70 1016.4
20260905212005 76 294 1.0 7.0 0.00 0.01 0.01 72 1016.3
20260905211004 76 289 2.0 5.0 0.00 0.01 0.01 71 1016.3
20260905210913 76 289 1.0 3.0 0.00 0.01 0.01 71 1016.3
20260905210004 76 258 1.0 5.0 0.00 0.01 0.01 72 1016.3
20260905205412 76 263 1.0 2.0 0.00 0.01 0.01 72 1016.4
20260905205004 77 129 0.0 6.0 0.00 0.01 0.01 74 1016.5
20260905203912 77 15 1.0 2.0 0.00 0.01 0.01 72 1016.9
20260905203004 78 68 3.0 10.0 0.00 0.01 0.01 72 1016.7
20260905202412 77 62 1.0 6.0 0.00 0.01 0.01 72 1016.8
20260905202012 77 272 1.0 6.0 0.00 0.01 0.01 70 1016.8
20260905201005 77 356 1.0 3.0 0.00 0.01 0.01 70 1016.8
20260905200914 77 261 1.0 1.0 0.00 0.01 0.01 70 1016.8
20260905200005 77 318 2.0 5.0 0.00 0.01 0.01 71 1016.9
20260905195413 76 258 2.0 5.0 0.00 0.01 0.01 74 1016.9
20260905195005 75 242 3.0 6.0 0.00 0.01 0.01 74 1016.8
20260905194008 75 259 1.0 3.0 0.00 0.01 0.01 75 1016.7
20260905193912 75 245 1.0 3.0 0.00 0.01 0.01 76 1016.7
20260905192418 76 278 3.0 6.0 0.00 0.01 0.01 74 1016.6
20260905192004 75 327 1.0 7.0 0.00 0.01 0.01 73 1016.6
20260905191004 75 268 1.0 7.0 0.00 0.01 0.01 75 1016.6
20260905190913 75 255 0.0 5.0 0.00 0.01 0.01 73 1016.6
20260905190004 75 217 1.0 3.0 0.00 0.01 0.01 73 1016.6
20260905185420 74 217 2.0 3.0 0.00 0.01 0.01 76 1016.9
20260905185004 74 213 1.0 5.0 0.00 0.01 0.01 73 1017.0
20260905184012 74 243 0.0 3.0 0.00 0.01 0.01 74 1017.0
20260905183917 74 243 0.0 2.0 0.00 0.01 0.01 74 1017.0
20260905183005 74 250 2.0 3.0 0.00 0.01 0.01 75 1017.1
20260905182412 73 276 0.0 0.0 0.00 0.01 0.01 75 1017.0
20260905182007 73 276 0.0 2.0 0.00 0.01 0.01 76 1017.0
20260905181004 73 279 1.0 2.0 0.00 0.01 0.01 76 1017.0
20260905180913 73 280 0.0 2.0 0.00 0.01 0.01 76 1016.9
20260905180004 73 287 0.0 2.0 0.00 0.01 0.01 77 1017.1
20260905175419 73 289 1.0 2.0 0.00 0.01 0.01 78 1017.1
20260905175011 72 293 1.0 3.0 0.00 0.01 0.01 79 1017.1
20260905174005 72 241 2.0 3.0 0.00 0.01 0.01 79 1017.4
20260905173917 72 241 2.0 3.0 0.00 0.01 0.01 79 1017.4
20260905172412 71 230 2.0 3.0 0.00 0.01 0.01 82 1017.4
20260905172004 71 244 2.0 5.0 0.00 0.01 0.01 83 1017.3
20260905171007 71 153 1.0 5.0 0.00 0.01 0.01 81 1017.4
20260905170912 71 153 1.0 3.0 0.00 0.01 0.01 81 1017.4
20260905170004 70 223 3.0 5.0 0.00 0.01 0.01 82 1017.5
20260905165413 70 191 1.0 3.0 0.00 0.01 0.01 83 1017.7
20260905165007 70 207 2.0 3.0 0.00 0.01 0.01 84 1017.7
20260905163912 69 219 2.0 2.0 0.00 0.01 0.01 85 1017.6
20260905163004 68 111 0.0 0.0 0.00 0.01 0.01 86 1017.7
20260905162413 68 111 0.0 0.0 0.00 0.01 0.01 86 1017.8
20260905162004 68 110 0.0 0.0 0.00 0.01 0.01 88 1017.9
20260905161012 67 110 0.0 0.0 0.00 0.01 0.01 87 1017.8
20260905161004 67 110 0.0 0.0 0.00 0.01 0.01 87 1017.8
20260905160004 67 110 0.0 0.0 0.00 0.01 0.01 90 1017.9
20260905155413 67 110 0.0 0.0 0.00 0.01 0.01 89 1017.8
20260905155005 67 110 0.0 0.0 0.00 0.01 0.01 90 1017.7
20260905154004 67 110 0.0 3.0 0.00 0.01 0.01 90 1017.7
20260905153913 67 110 0.0 0.0 0.00 0.01 0.01 90 1017.7
20260905153004 67 109 0.0 2.0 0.00 0.01 0.01 90 1017.4
20260905152414 67 109 1.0 1.0 0.00 0.01 0.01 91 1017.5
20260905152005 67 112 0.0 6.0 0.00 0.01 0.01 91 1017.5
20260905151004 66 87 0.0 2.0 0.00 0.01 0.01 90 1017.4
20260905150912 66 87 0.0 0.0 0.00 0.01 0.01 91 1017.4
20260905150004 66 88 0.0 7.0 0.00 0.01 0.01 91 1017.5
20260905145413 66 79 0.0 0.0 0.00 0.01 0.01 91 1017.4
20260905145004 66 80 0.0 2.0 0.00 0.01 0.01 92 1017.3
20260905144004 66 80 0.0 2.0 0.00 0.01 0.01 92 1017.2
20260905143912 66 80 0.0 0.0 0.00 0.01 0.01 91 1017.2
20260905143005 66 82 0.0 3.0 0.00 0.01 0.01 92 1017.1
20260905142456 66 86 0.0 2.0 0.00 0.01 0.01 92 1016.9
20260905141004 66 78 0.0 3.0 0.00 0.01 0.01 92 1016.8
20260905140928 66 78 0.0 0.0 0.00 0.01 0.01 92 1016.8
20260905140005 66 69 0.0 3.0 0.00 0.01 0.01 92 1016.5
20260905135413 66 76 0.0 2.0 0.00 0.01 0.01 93 1016.5
20260905135007 66 78 0.0 3.0 0.00 0.01 0.01 93 1016.4
20260905134005 66 77 1.0 3.0 0.00 0.01 0.01 93 1016.7
20260905133913 66 77 1.0 3.0 0.00 0.01 0.01 93 1016.7
20260905133005 66 69 0.0 3.0 0.00 0.01 0.01 94 1016.7
20260905132417 65 66 0.0 0.0 0.00 0.01 0.01 94 1016.9
20260905132004 65 65 0.0 2.0 0.00 0.01 0.01 94 1016.8
20260905131004 65 65 0.0 1.0 0.00 0.01 0.01 94 1016.8
20260905130913 65 46 0.0 1.0 0.00 0.01 0.01 94 1016.7
20260905130004 65 38 0.0 2.0 0.00 0.01 0.01 94 1016.6
20260905125417 65 38 0.0 0.0 0.00 0.01 0.01 94 1016.6
20260905125005 65 38 0.0 0.0 0.00 0.01 0.01 94 1016.7
20260905124004 65 38 0.0 0.0 0.00 0.01 0.01 94 1016.9
20260905123912 65 38 0.0 0.0 0.00 0.01 0.01 94 1016.9
20260905122417 64 38 0.0 0.0 0.00 0.01 0.01 94 1016.4
20260905122005 64 38 0.0 1.0 0.00 0.01 0.01 94 1016.4
20260905121011 64 38 0.0 0.0 0.00 0.01 0.01 94 1016.0
20260905120916 64 38 0.0 0.0 0.00 0.01 0.01 94 1016.0
20260905120006 64 38 0.0 1.0 0.00 0.01 0.01 94 1015.9
20260905115413 68 135 0.0 1.0 0.00 0.01 0.01 94 1009.3